Tracking 18945 objects as of 19-Jan-2018
HD Live streaming from Space Station
objects crossing your sky now

MOLNIYA 1-36

Track MOLNIYA 1-36 now!
MOLNIYA 1-36 is classified as:


NORAD ID: 9880
Int'l Code: 1977-021A
Perigee: 821.9 km
Apogee: 39,590.9 km
Inclination: 61.6 °
Period: 718.7 minutes
Semi major axis: 26577 km
RCS: 17.6752 m2 (large)
Launch date: March 24, 1977
Source: Commonwealth of Independent States (former USSR) (CIS)
Launch site: PLESETSK MISSILE AND SPACE COMPLEX (PKMTR)
aabbcc
Your satellite tracking list
Your tracking list is empty




NASA's NSSDC Master Catalog

Two Line Element Set (TLE):
1  9880U 77021A   18017.41725530 -.00000304 +00000-0 -52902-2 0  9995
2  9880 061.5835 164.2577 7293588 270.8080 014.3468 02.00370717197060
Source of the keplerian elements: AFSPC